#datetime,building,power
2023-08-03T00:00:00,rvs,15.67
2023-08-03T00:01:00,rvs,16.48
2023-08-03T00:02:00,rvs,16.27
2023-08-03T00:03:00,rvs,14.70
2023-08-03T00:04:00,rvs,16.05
2023-08-03T00:05:00,rvs,16.73
2023-08-03T00:06:00,rvs,23.11
2023-08-03T00:07:00,rvs,22.54
2023-08-03T00:08:00,rvs,22.33
2023-08-03T00:09:00,rvs,22.10
2023-08-03T00:10:00,rvs,18.30
2023-08-03T00:11:00,rvs,16.99
2023-08-03T00:12:00,rvs,17.30
2023-08-03T00:13:00,rvs,17.22
2023-08-03T00:14:00,rvs,17.49
2023-08-03T00:15:00,rvs,18.13
2023-08-03T00:16:00,rvs,17.70
2023-08-03T00:17:00,rvs,17.14
2023-08-03T00:18:00,rvs,17.06
2023-08-03T00:19:00,rvs,16.41
2023-08-03T00:20:00,rvs,16.50
2023-08-03T00:21:00,rvs,16.63
2023-08-03T00:22:00,rvs,16.68
2023-08-03T00:23:00,rvs,16.96
2023-08-03T00:24:00,rvs,17.06
2023-08-03T00:25:00,rvs,17.06
2023-08-03T00:26:00,rvs,17.59
2023-08-03T00:27:00,rvs,17.60
2023-08-03T00:28:00,rvs,20.01
2023-08-03T00:29:00,rvs,19.54
2023-08-03T00:30:00,rvs,19.36
2023-08-03T00:31:00,rvs,19.59
2023-08-03T00:32:00,rvs,20.19
2023-08-03T00:33:00,rvs,20.67
2023-08-03T00:34:00,rvs,20.35
2023-08-03T00:35:00,rvs,21.83
2023-08-03T00:36:00,rvs,22.21
2023-08-03T00:37:00,rvs,22.62
2023-08-03T00:38:00,rvs,23.24
2023-08-03T00:39:00,rvs,23.43
2023-08-03T00:40:00,rvs,19.45
2023-08-03T00:41:00,rvs,14.43
2023-08-03T00:42:00,rvs,18.57
2023-08-03T00:43:00,rvs,19.92
2023-08-03T00:44:00,rvs,19.50
2023-08-03T00:45:00,rvs,17.30
2023-08-03T00:46:00,rvs,18.10
2023-08-03T00:47:00,rvs,18.22
2023-08-03T00:48:00,rvs,14.28
2023-08-03T00:49:00,rvs,16.78
2023-08-03T00:50:00,rvs,22.74
2023-08-03T00:51:00,rvs,19.69
2023-08-03T00:52:00,rvs,21.03
2023-08-03T00:53:00,rvs,20.70
2023-08-03T00:54:00,rvs,20.49
2023-08-03T00:55:00,rvs,20.31
2023-08-03T00:56:00,rvs,24.12
2023-08-03T00:57:00,rvs,20.04
2023-08-03T00:58:00,rvs,20.68
2023-08-03T00:59:00,rvs,24.35
2023-08-03T01:00:00,rvs,25.33
2023-08-03T01:01:00,rvs,16.67
2023-08-03T01:02:00,rvs,17.63
2023-08-03T01:03:00,rvs,17.66
2023-08-03T01:04:00,rvs,17.94
2023-08-03T01:05:00,rvs,16.57
2023-08-03T01:06:00,rvs,16.09
2023-08-03T01:07:00,rvs,15.97
2023-08-03T01:08:00,rvs,12.03
2023-08-03T01:09:00,rvs,12.09
2023-08-03T01:10:00,rvs,12.08
2023-08-03T01:11:00,rvs,12.55
2023-08-03T01:12:00,rvs,12.77
2023-08-03T01:13:00,rvs,12.86
2023-08-03T01:14:00,rvs,13.67
2023-08-03T01:15:00,rvs,13.46
2023-08-03T01:16:00,rvs,13.43
2023-08-03T01:17:00,rvs,12.39
2023-08-03T01:18:00,rvs,11.85
2023-08-03T01:19:00,rvs,11.77
2023-08-03T01:20:00,rvs,11.61
2023-08-03T01:21:00,rvs,11.65
2023-08-03T01:22:00,rvs,11.63
2023-08-03T01:23:00,rvs,13.72
2023-08-03T01:24:00,rvs,27.26
2023-08-03T01:25:00,rvs,27.04
2023-08-03T01:26:00,rvs,28.39
2023-08-03T01:27:00,rvs,28.92
2023-08-03T01:28:00,rvs,16.72
2023-08-03T01:29:00,rvs,15.31
2023-08-03T01:30:00,rvs,11.31
2023-08-03T01:31:00,rvs,11.35
2023-08-03T01:32:00,rvs,11.42
2023-08-03T01:33:00,rvs,11.27
2023-08-03T01:34:00,rvs,11.21
2023-08-03T01:35:00,rvs,12.36
2023-08-03T01:36:00,rvs,11.69
2023-08-03T01:37:00,rvs,11.70
2023-08-03T01:38:00,rvs,12.16
2023-08-03T01:39:00,rvs,12.14
2023-08-03T01:40:00,rvs,12.10
2023-08-03T01:41:00,rvs,11.09
2023-08-03T01:42:00,rvs,10.82
2023-08-03T01:43:00,rvs,10.90
2023-08-03T01:44:00,rvs,12.75
2023-08-03T01:45:00,rvs,13.28
2023-08-03T01:46:00,rvs,13.83
2023-08-03T01:47:00,rvs,14.27
2023-08-03T01:48:00,rvs,15.07
2023-08-03T01:49:00,rvs,15.13
2023-08-03T01:50:00,rvs,15.99
2023-08-03T01:51:00,rvs,15.95
2023-08-03T01:52:00,rvs,15.80
2023-08-03T01:53:00,rvs,14.84
2023-08-03T01:54:00,rvs,11.09
2023-08-03T01:55:00,rvs,11.07
2023-08-03T01:56:00,rvs,11.13
2023-08-03T01:57:00,rvs,11.03
2023-08-03T01:58:00,rvs,11.08
2023-08-03T01:59:00,rvs,11.07
2023-08-03T02:00:00,rvs,11.09
2023-08-03T02:01:00,rvs,13.06
2023-08-03T02:02:00,rvs,14.72
2023-08-03T02:03:00,rvs,15.36
2023-08-03T02:04:00,rvs,15.91
2023-08-03T02:05:00,rvs,15.69
2023-08-03T02:06:00,rvs,15.70
2023-08-03T02:07:00,rvs,11.49
2023-08-03T02:08:00,rvs,11.61
2023-08-03T02:09:00,rvs,12.06
2023-08-03T02:10:00,rvs,12.10
2023-08-03T02:11:00,rvs,11.47
2023-08-03T02:12:00,rvs,11.49
2023-08-03T02:13:00,rvs,11.37
2023-08-03T02:14:00,rvs,11.40
2023-08-03T02:15:00,rvs,12.32
2023-08-03T02:16:00,rvs,12.28
2023-08-03T02:17:00,rvs,12.36
2023-08-03T02:18:00,rvs,11.33
2023-08-03T02:19:00,rvs,11.38
2023-08-03T02:20:00,rvs,11.92
2023-08-03T02:21:00,rvs,14.26
2023-08-03T02:22:00,rvs,14.02
2023-08-03T02:23:00,rvs,14.13
2023-08-03T02:24:00,rvs,14.59
2023-08-03T02:25:00,rvs,15.07
2023-08-03T02:26:00,rvs,15.39
2023-08-03T02:27:00,rvs,16.51
2023-08-03T02:28:00,rvs,16.74
2023-08-03T02:29:00,rvs,16.60
2023-08-03T02:30:00,rvs,15.23
2023-08-03T02:31:00,rvs,15.07
2023-08-03T02:32:00,rvs,14.90
2023-08-03T02:33:00,rvs,15.16
2023-08-03T02:34:00,rvs,15.59
2023-08-03T02:35:00,rvs,15.69
2023-08-03T02:36:00,rvs,15.72
2023-08-03T02:37:00,rvs,15.50
2023-08-03T02:38:00,rvs,11.64
2023-08-03T02:39:00,rvs,11.77
2023-08-03T02:40:00,rvs,12.38
2023-08-03T02:41:00,rvs,12.31
2023-08-03T02:42:00,rvs,12.30
2023-08-03T02:43:00,rvs,11.29
2023-08-03T02:44:00,rvs,11.66
2023-08-03T02:45:00,rvs,11.71
2023-08-03T02:46:00,rvs,11.24
2023-08-03T02:47:00,rvs,10.69
2023-08-03T02:48:00,rvs,10.70
2023-08-03T02:49:00,rvs,10.76
2023-08-03T02:50:00,rvs,10.83
2023-08-03T02:51:00,rvs,12.92
2023-08-03T02:52:00,rvs,13.97
2023-08-03T02:53:00,rvs,14.64
2023-08-03T02:54:00,rvs,15.32
2023-08-03T02:55:00,rvs,15.36
2023-08-03T02:56:00,rvs,15.72
2023-08-03T02:57:00,rvs,15.23
2023-08-03T02:58:00,rvs,15.74
2023-08-03T02:59:00,rvs,15.62
2023-08-03T03:00:00,rvs,15.40
2023-08-03T03:01:00,rvs,15.29
2023-08-03T03:02:00,rvs,15.36
2023-08-03T03:03:00,rvs,15.64
2023-08-03T03:04:00,rvs,15.84
2023-08-03T03:05:00,rvs,16.98
2023-08-03T03:06:00,rvs,12.33
2023-08-03T03:07:00,rvs,12.37
2023-08-03T03:08:00,rvs,11.34
2023-08-03T03:09:00,rvs,11.40
2023-08-03T03:10:00,rvs,11.37
2023-08-03T03:11:00,rvs,11.26
2023-08-03T03:12:00,rvs,11.18
2023-08-03T03:13:00,rvs,10.79
2023-08-03T03:14:00,rvs,10.77
2023-08-03T03:15:00,rvs,10.78
2023-08-03T03:16:00,rvs,10.84
2023-08-03T03:17:00,rvs,11.74
2023-08-03T03:18:00,rvs,11.76
2023-08-03T03:19:00,rvs,12.04
2023-08-03T03:20:00,rvs,10.71
2023-08-03T03:21:00,rvs,10.67
2023-08-03T03:22:00,rvs,10.84
2023-08-03T03:23:00,rvs,11.16
2023-08-03T03:24:00,rvs,11.19
2023-08-03T03:25:00,rvs,10.73
2023-08-03T03:26:00,rvs,10.73
2023-08-03T03:27:00,rvs,10.78
2023-08-03T03:28:00,rvs,10.79
2023-08-03T03:29:00,rvs,10.75
2023-08-03T03:30:00,rvs,11.30
2023-08-03T03:31:00,rvs,13.70
2023-08-03T03:32:00,rvs,13.57
2023-08-03T03:33:00,rvs,12.67
2023-08-03T03:34:00,rvs,13.00
2023-08-03T03:35:00,rvs,13.76
2023-08-03T03:36:00,rvs,14.45
2023-08-03T03:37:00,rvs,16.20
2023-08-03T03:38:00,rvs,17.31
2023-08-03T03:39:00,rvs,16.79
2023-08-03T03:40:00,rvs,17.79
2023-08-03T03:41:00,rvs,16.94
2023-08-03T03:42:00,rvs,10.94
2023-08-03T03:43:00,rvs,10.85
2023-08-03T03:44:00,rvs,10.87
2023-08-03T03:45:00,rvs,11.89
2023-08-03T03:46:00,rvs,11.84
2023-08-03T03:47:00,rvs,12.26
2023-08-03T03:48:00,rvs,11.19
2023-08-03T03:49:00,rvs,11.21
2023-08-03T03:50:00,rvs,11.19
2023-08-03T03:51:00,rvs,11.31
2023-08-03T03:52:00,rvs,11.17
2023-08-03T03:53:00,rvs,11.76
2023-08-03T03:54:00,rvs,11.67
2023-08-03T03:55:00,rvs,11.79
2023-08-03T03:56:00,rvs,11.72
2023-08-03T03:57:00,rvs,11.70
2023-08-03T03:58:00,rvs,12.62
2023-08-03T03:59:00,rvs,12.73
2023-08-03T04:00:00,rvs,12.94
2023-08-03T04:01:00,rvs,11.92
2023-08-03T04:02:00,rvs,11.91
2023-08-03T04:03:00,rvs,12.00
2023-08-03T04:04:00,rvs,12.12
2023-08-03T04:05:00,rvs,12.38
2023-08-03T04:06:00,rvs,12.40
2023-08-03T04:07:00,rvs,11.69
2023-08-03T04:08:00,rvs,11.96
2023-08-03T04:09:00,rvs,11.87
2023-08-03T04:10:00,rvs,11.64
2023-08-03T04:11:00,rvs,11.33
2023-08-03T04:12:00,rvs,11.72
2023-08-03T04:13:00,rvs,24.71
2023-08-03T04:14:00,rvs,24.55
2023-08-03T04:15:00,rvs,23.31
2023-08-03T04:16:00,rvs,10.61
2023-08-03T04:17:00,rvs,10.60
2023-08-03T04:18:00,rvs,10.58
2023-08-03T04:19:00,rvs,10.49
2023-08-03T04:20:00,rvs,10.48
2023-08-03T04:21:00,rvs,10.45
2023-08-03T04:22:00,rvs,10.48
2023-08-03T04:23:00,rvs,10.56
2023-08-03T04:24:00,rvs,11.50
2023-08-03T04:25:00,rvs,11.50
2023-08-03T04:26:00,rvs,11.54
2023-08-03T04:27:00,rvs,10.52
2023-08-03T04:28:00,rvs,10.50
2023-08-03T04:29:00,rvs,10.58
2023-08-03T04:30:00,rvs,10.64
2023-08-03T04:31:00,rvs,10.59
2023-08-03T04:32:00,rvs,10.66
2023-08-03T04:33:00,rvs,10.60
2023-08-03T04:34:00,rvs,10.72
2023-08-03T04:35:00,rvs,10.78
2023-08-03T04:36:00,rvs,11.51
2023-08-03T04:37:00,rvs,13.13
2023-08-03T04:38:00,rvs,14.51
2023-08-03T04:39:00,rvs,14.87
2023-08-03T04:40:00,rvs,15.74
2023-08-03T04:41:00,rvs,14.75
2023-08-03T04:42:00,rvs,15.21
2023-08-03T04:43:00,rvs,14.86
2023-08-03T04:44:00,rvs,14.78
2023-08-03T04:45:00,rvs,14.98
2023-08-03T04:46:00,rvs,14.84
2023-08-03T04:47:00,rvs,14.83
2023-08-03T04:48:00,rvs,14.65
2023-08-03T04:49:00,rvs,14.64
2023-08-03T04:50:00,rvs,14.88
2023-08-03T04:51:00,rvs,12.30
2023-08-03T04:52:00,rvs,12.35
2023-08-03T04:53:00,rvs,12.28
2023-08-03T04:54:00,rvs,11.37
2023-08-03T04:55:00,rvs,11.34
2023-08-03T04:56:00,rvs,11.30
2023-08-03T04:57:00,rvs,10.79
2023-08-03T04:58:00,rvs,10.80
2023-08-03T04:59:00,rvs,10.77
2023-08-03T05:00:00,rvs,10.75
2023-08-03T05:01:00,rvs,10.76
2023-08-03T05:02:00,rvs,10.82
2023-08-03T05:03:00,rvs,10.85
2023-08-03T05:04:00,rvs,11.73
2023-08-03T05:05:00,rvs,12.04
2023-08-03T05:06:00,rvs,12.10
2023-08-03T05:07:00,rvs,11.03
2023-08-03T05:08:00,rvs,11.13
2023-08-03T05:09:00,rvs,11.05
2023-08-03T05:10:00,rvs,11.03
2023-08-03T05:11:00,rvs,11.01
2023-08-03T05:12:00,rvs,11.45
2023-08-03T05:13:00,rvs,11.67
2023-08-03T05:14:00,rvs,11.91
2023-08-03T05:15:00,rvs,11.90
2023-08-03T05:16:00,rvs,11.27
2023-08-03T05:17:00,rvs,11.37
2023-08-03T05:18:00,rvs,11.30
2023-08-03T05:19:00,rvs,12.08
2023-08-03T05:20:00,rvs,12.26
2023-08-03T05:21:00,rvs,12.26
2023-08-03T05:22:00,rvs,11.23
2023-08-03T05:23:00,rvs,11.86
2023-08-03T05:24:00,rvs,13.45
2023-08-03T05:25:00,rvs,14.14
2023-08-03T05:26:00,rvs,14.27
2023-08-03T05:27:00,rvs,14.63
2023-08-03T05:28:00,rvs,15.56
2023-08-03T05:29:00,rvs,15.54
2023-08-03T05:30:00,rvs,16.07
2023-08-03T05:31:00,rvs,16.55
2023-08-03T05:32:00,rvs,16.03
2023-08-03T05:33:00,rvs,16.28
2023-08-03T05:34:00,rvs,15.04
2023-08-03T05:35:00,rvs,15.26
2023-08-03T05:36:00,rvs,11.11
2023-08-03T05:37:00,rvs,11.15
2023-08-03T05:38:00,rvs,11.21
2023-08-03T05:39:00,rvs,11.23
2023-08-03T05:40:00,rvs,11.20
2023-08-03T05:41:00,rvs,11.07
2023-08-03T05:42:00,rvs,11.30
2023-08-03T05:43:00,rvs,11.19
2023-08-03T05:44:00,rvs,11.82
2023-08-03T05:45:00,rvs,12.28
2023-08-03T05:46:00,rvs,12.34
2023-08-03T05:47:00,rvs,11.42
2023-08-03T05:48:00,rvs,11.42
2023-08-03T05:49:00,rvs,11.53
2023-08-03T05:50:00,rvs,11.17
2023-08-03T05:51:00,rvs,11.20
2023-08-03T05:52:00,rvs,11.21
2023-08-03T05:53:00,rvs,11.77
2023-08-03T05:54:00,rvs,11.60
2023-08-03T05:55:00,rvs,10.48
2023-08-03T05:56:00,rvs,10.51
2023-08-03T05:57:00,rvs,11.02
2023-08-03T05:58:00,rvs,12.03
2023-08-03T05:59:00,rvs,12.07
2023-08-03T06:00:00,rvs,12.13
2023-08-03T06:01:00,rvs,11.21
2023-08-03T06:02:00,rvs,11.18
2023-08-03T06:03:00,rvs,11.18
2023-08-03T06:04:00,rvs,11.25
2023-08-03T06:05:00,rvs,11.24
2023-08-03T06:06:00,rvs,11.16
2023-08-03T06:07:00,rvs,11.10
2023-08-03T06:08:00,rvs,11.21
2023-08-03T06:09:00,rvs,13.40
2023-08-03T06:10:00,rvs,13.93
2023-08-03T06:11:00,rvs,15.19
2023-08-03T06:12:00,rvs,15.54
2023-08-03T06:13:00,rvs,15.68
2023-08-03T06:14:00,rvs,15.09
2023-08-03T06:15:00,rvs,16.96
2023-08-03T06:16:00,rvs,16.83
2023-08-03T06:17:00,rvs,17.06
2023-08-03T06:18:00,rvs,17.37
2023-08-03T06:19:00,rvs,18.01
2023-08-03T06:20:00,rvs,15.07
2023-08-03T06:21:00,rvs,11.45
2023-08-03T06:22:00,rvs,11.13
2023-08-03T06:23:00,rvs,12.60
2023-08-03T06:24:00,rvs,12.81
2023-08-03T06:25:00,rvs,13.05
2023-08-03T06:26:00,rvs,11.25
2023-08-03T06:27:00,rvs,11.36
2023-08-03T06:28:00,rvs,11.20
2023-08-03T06:29:00,rvs,11.35
2023-08-03T06:30:00,rvs,11.29
2023-08-03T06:31:00,rvs,11.20
2023-08-03T06:32:00,rvs,11.11
2023-08-03T06:33:00,rvs,11.24
2023-08-03T06:34:00,rvs,12.72
2023-08-03T06:35:00,rvs,13.60
2023-08-03T06:36:00,rvs,13.54
2023-08-03T06:37:00,rvs,11.36
2023-08-03T06:38:00,rvs,13.47
2023-08-03T06:39:00,rvs,14.89
2023-08-03T06:40:00,rvs,14.92
2023-08-03T06:41:00,rvs,15.34
2023-08-03T06:42:00,rvs,15.61
2023-08-03T06:43:00,rvs,17.67
2023-08-03T06:44:00,rvs,17.59
2023-08-03T06:45:00,rvs,16.76
2023-08-03T06:46:00,rvs,17.30
2023-08-03T06:47:00,rvs,17.45
2023-08-03T06:48:00,rvs,17.17
2023-08-03T06:49:00,rvs,12.47
2023-08-03T06:50:00,rvs,12.47
2023-08-03T06:51:00,rvs,12.51
2023-08-03T06:52:00,rvs,12.40
2023-08-03T06:53:00,rvs,11.88
2023-08-03T06:54:00,rvs,11.93
2023-08-03T06:55:00,rvs,11.86
2023-08-03T06:56:00,rvs,12.66
2023-08-03T06:57:00,rvs,13.32
2023-08-03T06:58:00,rvs,13.21
2023-08-03T06:59:00,rvs,13.28
2023-08-03T07:00:00,rvs,12.33
2023-08-03T07:01:00,rvs,12.29
2023-08-03T07:02:00,rvs,12.42
2023-08-03T07:03:00,rvs,13.67
2023-08-03T07:04:00,rvs,13.47
2023-08-03T07:05:00,rvs,13.91
2023-08-03T07:06:00,rvs,13.59
2023-08-03T07:07:00,rvs,12.46
2023-08-03T07:08:00,rvs,13.14
2023-08-03T07:09:00,rvs,13.19
2023-08-03T07:10:00,rvs,13.11
2023-08-03T07:11:00,rvs,11.61
2023-08-03T07:12:00,rvs,11.60
2023-08-03T07:13:00,rvs,12.10
2023-08-03T07:14:00,rvs,12.03
2023-08-03T07:15:00,rvs,11.94
2023-08-03T07:16:00,rvs,12.40
2023-08-03T07:17:00,rvs,13.90
2023-08-03T07:18:00,rvs,13.43
2023-08-03T07:19:00,rvs,13.45
2023-08-03T07:20:00,rvs,13.30
2023-08-03T07:21:00,rvs,13.48
2023-08-03T07:22:00,rvs,26.88
2023-08-03T07:23:00,rvs,25.71
2023-08-03T07:24:00,rvs,25.52
2023-08-03T07:25:00,rvs,25.40
2023-08-03T07:26:00,rvs,17.00
2023-08-03T07:27:00,rvs,17.25
2023-08-03T07:28:00,rvs,16.87
2023-08-03T07:29:00,rvs,16.79
2023-08-03T07:30:00,rvs,17.64
2023-08-03T07:31:00,rvs,17.92
2023-08-03T07:32:00,rvs,17.56
2023-08-03T07:33:00,rvs,16.73
2023-08-03T07:34:00,rvs,16.42
2023-08-03T07:35:00,rvs,16.28
2023-08-03T07:36:00,rvs,16.54
2023-08-03T07:37:00,rvs,16.16
2023-08-03T07:38:00,rvs,16.18
2023-08-03T07:39:00,rvs,15.69
2023-08-03T07:40:00,rvs,15.54
2023-08-03T07:41:00,rvs,18.16
2023-08-03T07:42:00,rvs,21.86
2023-08-03T07:43:00,rvs,22.69
2023-08-03T07:44:00,rvs,21.26
2023-08-03T07:45:00,rvs,22.58
2023-08-03T07:46:00,rvs,23.38
2023-08-03T07:47:00,rvs,25.90
2023-08-03T07:48:00,rvs,21.42
2023-08-03T07:49:00,rvs,25.49
2023-08-03T07:50:00,rvs,21.46
2023-08-03T07:51:00,rvs,21.87
2023-08-03T07:52:00,rvs,19.51
2023-08-03T07:53:00,rvs,19.32
2023-08-03T07:54:00,rvs,19.46
2023-08-03T07:55:00,rvs,18.82
2023-08-03T07:56:00,rvs,14.79
2023-08-03T07:57:00,rvs,15.26
2023-08-03T07:58:00,rvs,13.37
2023-08-03T07:59:00,rvs,13.02
2023-08-03T08:00:00,rvs,12.90
2023-08-03T08:01:00,rvs,12.94
2023-08-03T08:02:00,rvs,15.03
2023-08-03T08:03:00,rvs,15.52
2023-08-03T08:04:00,rvs,15.26
2023-08-03T08:05:00,rvs,13.68
2023-08-03T08:06:00,rvs,13.77
2023-08-03T08:07:00,rvs,12.70
2023-08-03T08:08:00,rvs,12.72
2023-08-03T08:09:00,rvs,12.00
2023-08-03T08:10:00,rvs,12.02
2023-08-03T08:11:00,rvs,11.91
2023-08-03T08:12:00,rvs,30.35
2023-08-03T08:13:00,rvs,12.90
2023-08-03T08:14:00,rvs,12.87
2023-08-03T08:15:00,rvs,11.84
2023-08-03T08:16:00,rvs,11.79
2023-08-03T08:17:00,rvs,13.72
2023-08-03T08:18:00,rvs,13.45
2023-08-03T08:19:00,rvs,14.14
2023-08-03T08:20:00,rvs,14.24
2023-08-03T08:21:00,rvs,14.42
2023-08-03T08:22:00,rvs,15.15
2023-08-03T08:23:00,rvs,14.78
2023-08-03T08:24:00,rvs,14.96
2023-08-03T08:25:00,rvs,13.82
2023-08-03T08:26:00,rvs,14.73
2023-08-03T08:27:00,rvs,14.42
2023-08-03T08:28:00,rvs,19.28
2023-08-03T08:29:00,rvs,25.92
2023-08-03T08:30:00,rvs,26.00
2023-08-03T08:31:00,rvs,26.22
2023-08-03T08:32:00,rvs,29.36
2023-08-03T08:33:00,rvs,29.92
2023-08-03T08:34:00,rvs,27.71
2023-08-03T08:35:00,rvs,26.30
2023-08-03T08:36:00,rvs,25.91
2023-08-03T08:37:00,rvs,27.54
2023-08-03T08:38:00,rvs,28.24
2023-08-03T08:39:00,rvs,40.73
2023-08-03T08:40:00,rvs,25.75
2023-08-03T08:41:00,rvs,27.47
2023-08-03T08:42:00,rvs,23.11
2023-08-03T08:43:00,rvs,28.89
2023-08-03T08:44:00,rvs,28.19
2023-08-03T08:45:00,rvs,28.10
2023-08-03T08:46:00,rvs,23.37
2023-08-03T08:47:00,rvs,23.95
2023-08-03T08:48:00,rvs,24.53
2023-08-03T08:49:00,rvs,20.91
2023-08-03T08:50:00,rvs,17.15
2023-08-03T08:51:00,rvs,20.95
2023-08-03T08:52:00,rvs,16.84
2023-08-03T08:53:00,rvs,20.82
2023-08-03T08:54:00,rvs,21.65
2023-08-03T08:55:00,rvs,13.47
2023-08-03T08:56:00,rvs,17.85
2023-08-03T08:57:00,rvs,20.52
2023-08-03T08:58:00,rvs,16.57
2023-08-03T08:59:00,rvs,12.57
2023-08-03T09:00:00,rvs,17.02
2023-08-03T09:01:00,rvs,13.10
2023-08-03T09:02:00,rvs,16.98
2023-08-03T09:03:00,rvs,20.89
2023-08-03T09:04:00,rvs,12.28
2023-08-03T09:05:00,rvs,13.54
2023-08-03T09:06:00,rvs,17.40
2023-08-03T09:07:00,rvs,13.23
2023-08-03T09:08:00,rvs,16.06
2023-08-03T09:09:00,rvs,11.86
2023-08-03T09:10:00,rvs,15.92
2023-08-03T09:11:00,rvs,11.85
2023-08-03T09:12:00,rvs,11.81
2023-08-03T09:13:00,rvs,21.05
2023-08-03T09:14:00,rvs,17.07
2023-08-03T09:15:00,rvs,11.84
2023-08-03T09:16:00,rvs,12.95
2023-08-03T09:17:00,rvs,16.93
2023-08-03T09:18:00,rvs,12.60
2023-08-03T09:19:00,rvs,29.92
2023-08-03T09:20:00,rvs,10.88
2023-08-03T09:21:00,rvs,11.08
2023-08-03T09:22:00,rvs,10.98
2023-08-03T09:23:00,rvs,10.83
2023-08-03T09:24:00,rvs,10.80
2023-08-03T09:25:00,rvs,10.72
2023-08-03T09:26:00,rvs,12.47
2023-08-03T09:27:00,rvs,12.60
2023-08-03T09:28:00,rvs,12.66
2023-08-03T09:29:00,rvs,12.00
2023-08-03T09:30:00,rvs,11.81
2023-08-03T09:31:00,rvs,12.38
2023-08-03T09:32:00,rvs,12.49
2023-08-03T09:33:00,rvs,12.25
2023-08-03T09:34:00,rvs,12.08
2023-08-03T09:35:00,rvs,12.33
2023-08-03T09:36:00,rvs,12.03
2023-08-03T09:37:00,rvs,12.96
2023-08-03T09:38:00,rvs,13.11
2023-08-03T09:39:00,rvs,13.82
2023-08-03T09:40:00,rvs,12.84
2023-08-03T09:41:00,rvs,12.06
2023-08-03T09:42:00,rvs,11.98
2023-08-03T09:43:00,rvs,11.95
2023-08-03T09:44:00,rvs,11.84
2023-08-03T09:45:00,rvs,11.49
2023-08-03T09:46:00,rvs,12.88
2023-08-03T09:47:00,rvs,11.99
2023-08-03T09:48:00,rvs,12.41
2023-08-03T09:49:00,rvs,12.37
2023-08-03T09:50:00,rvs,11.62
2023-08-03T09:51:00,rvs,11.23
2023-08-03T09:52:00,rvs,11.18
2023-08-03T09:53:00,rvs,11.24
2023-08-03T09:54:00,rvs,11.44
2023-08-03T09:55:00,rvs,14.36
2023-08-03T09:56:00,rvs,17.14
2023-08-03T09:57:00,rvs,18.30
2023-08-03T09:58:00,rvs,19.30
2023-08-03T09:59:00,rvs,20.08
2023-08-03T10:00:00,rvs,19.50
2023-08-03T10:01:00,rvs,19.57
2023-08-03T10:02:00,rvs,19.54
2023-08-03T10:03:00,rvs,19.45
2023-08-03T10:04:00,rvs,19.19
2023-08-03T10:05:00,rvs,19.16
2023-08-03T10:06:00,rvs,20.10
2023-08-03T10:07:00,rvs,19.89
2023-08-03T10:08:00,rvs,22.23
2023-08-03T10:09:00,rvs,25.04
2023-08-03T10:10:00,rvs,25.76
2023-08-03T10:11:00,rvs,23.30
2023-08-03T10:12:00,rvs,18.49
2023-08-03T10:13:00,rvs,18.81
2023-08-03T10:14:00,rvs,19.65
2023-08-03T10:15:00,rvs,19.68
2023-08-03T10:16:00,rvs,20.85
2023-08-03T10:17:00,rvs,21.72
2023-08-03T10:18:00,rvs,23.46
2023-08-03T10:19:00,rvs,20.84
2023-08-03T10:20:00,rvs,21.34
2023-08-03T10:21:00,rvs,21.19
2023-08-03T10:22:00,rvs,19.47
2023-08-03T10:23:00,rvs,18.60
2023-08-03T10:24:00,rvs,15.17
2023-08-03T10:25:00,rvs,14.94
2023-08-03T10:26:00,rvs,15.03
2023-08-03T10:27:00,rvs,15.55
2023-08-03T10:28:00,rvs,16.71
2023-08-03T10:29:00,rvs,15.23
2023-08-03T10:30:00,rvs,11.69
2023-08-03T10:31:00,rvs,11.61
2023-08-03T10:32:00,rvs,11.63
2023-08-03T10:33:00,rvs,11.69
2023-08-03T10:34:00,rvs,11.94
2023-08-03T10:35:00,rvs,12.12
2023-08-03T10:36:00,rvs,13.06
2023-08-03T10:37:00,rvs,12.38
2023-08-03T10:38:00,rvs,12.23
2023-08-03T10:39:00,rvs,11.21
2023-08-03T10:40:00,rvs,10.51
2023-08-03T10:41:00,rvs,10.41
2023-08-03T10:42:00,rvs,10.40
2023-08-03T10:43:00,rvs,10.39
2023-08-03T10:44:00,rvs,10.41
2023-08-03T10:45:00,rvs,10.54
2023-08-03T10:46:00,rvs,11.46
2023-08-03T10:47:00,rvs,11.39
2023-08-03T10:48:00,rvs,11.55
2023-08-03T10:49:00,rvs,10.68
2023-08-03T10:50:00,rvs,10.64
2023-08-03T10:51:00,rvs,10.70
2023-08-03T10:52:00,rvs,10.54
2023-08-03T10:53:00,rvs,10.48
2023-08-03T10:54:00,rvs,10.49
2023-08-03T10:55:00,rvs,10.53
2023-08-03T10:56:00,rvs,24.49
2023-08-03T10:57:00,rvs,24.35
2023-08-03T10:58:00,rvs,24.55
2023-08-03T10:59:00,rvs,23.79
2023-08-03T11:00:00,rvs,13.44
2023-08-03T11:01:00,rvs,13.57
2023-08-03T11:02:00,rvs,13.79
2023-08-03T11:03:00,rvs,14.38
2023-08-03T11:04:00,rvs,14.54
2023-08-03T11:05:00,rvs,13.88
2023-08-03T11:06:00,rvs,15.00
2023-08-03T11:07:00,rvs,15.55
2023-08-03T11:08:00,rvs,16.15
2023-08-03T11:09:00,rvs,15.38
2023-08-03T11:10:00,rvs,17.30
2023-08-03T11:11:00,rvs,17.83
2023-08-03T11:12:00,rvs,17.95
2023-08-03T11:13:00,rvs,14.51
2023-08-03T11:14:00,rvs,14.57
2023-08-03T11:15:00,rvs,14.79
2023-08-03T11:16:00,rvs,15.87
2023-08-03T11:17:00,rvs,16.30
2023-08-03T11:18:00,rvs,11.88
2023-08-03T11:19:00,rvs,10.83
2023-08-03T11:20:00,rvs,10.90
2023-08-03T11:21:00,rvs,10.92
2023-08-03T11:22:00,rvs,10.96
2023-08-03T11:23:00,rvs,12.28
2023-08-03T11:24:00,rvs,10.94
2023-08-03T11:25:00,rvs,10.98
2023-08-03T11:26:00,rvs,10.97
2023-08-03T11:27:00,rvs,13.55
2023-08-03T11:28:00,rvs,15.11
2023-08-03T11:29:00,rvs,15.27
2023-08-03T11:30:00,rvs,14.82
2023-08-03T11:31:00,rvs,14.51
2023-08-03T11:32:00,rvs,14.34
2023-08-03T11:33:00,rvs,14.36
2023-08-03T11:34:00,rvs,14.50
2023-08-03T11:35:00,rvs,14.06
2023-08-03T11:36:00,rvs,14.18
2023-08-03T11:37:00,rvs,15.39
2023-08-03T11:38:00,rvs,15.41
2023-08-03T11:39:00,rvs,15.44
2023-08-03T11:40:00,rvs,10.76
2023-08-03T11:41:00,rvs,10.73
2023-08-03T11:42:00,rvs,10.51
2023-08-03T11:43:00,rvs,11.14
2023-08-03T11:44:00,rvs,11.14
2023-08-03T11:45:00,rvs,11.11
2023-08-03T11:46:00,rvs,11.19
2023-08-03T11:47:00,rvs,11.24
2023-08-03T11:48:00,rvs,12.25
2023-08-03T11:49:00,rvs,12.39
2023-08-03T11:50:00,rvs,11.76
2023-08-03T11:51:00,rvs,10.74
2023-08-03T11:52:00,rvs,10.70
2023-08-03T11:53:00,rvs,10.76
2023-08-03T11:54:00,rvs,10.63
2023-08-03T11:55:00,rvs,10.61
2023-08-03T11:56:00,rvs,10.59
2023-08-03T11:57:00,rvs,10.74
2023-08-03T11:58:00,rvs,11.67
2023-08-03T11:59:00,rvs,14.69
2023-08-03T12:00:00,rvs,15.89
2023-08-03T12:01:00,rvs,15.64
2023-08-03T12:02:00,rvs,16.80
2023-08-03T12:03:00,rvs,15.68
2023-08-03T12:04:00,rvs,15.45
2023-08-03T12:05:00,rvs,15.06
2023-08-03T12:06:00,rvs,15.58
2023-08-03T12:07:00,rvs,15.58
2023-08-03T12:08:00,rvs,10.65
2023-08-03T12:09:00,rvs,11.93
2023-08-03T12:10:00,rvs,11.98
2023-08-03T12:11:00,rvs,11.66
2023-08-03T12:12:00,rvs,13.35
2023-08-03T12:13:00,rvs,13.92
2023-08-03T12:14:00,rvs,14.18
2023-08-03T12:15:00,rvs,14.44
2023-08-03T12:16:00,rvs,14.88
2023-08-03T12:17:00,rvs,14.65
2023-08-03T12:18:00,rvs,14.71
2023-08-03T12:19:00,rvs,13.85
2023-08-03T12:20:00,rvs,14.79
2023-08-03T12:21:00,rvs,15.26
2023-08-03T12:22:00,rvs,11.60
2023-08-03T12:23:00,rvs,10.53
2023-08-03T12:24:00,rvs,10.57
2023-08-03T12:25:00,rvs,11.46
2023-08-03T12:26:00,rvs,13.70
2023-08-03T12:27:00,rvs,13.70
2023-08-03T12:28:00,rvs,14.27
2023-08-03T12:29:00,rvs,14.97
2023-08-03T12:30:00,rvs,15.90
2023-08-03T12:31:00,rvs,15.68
2023-08-03T12:32:00,rvs,16.12
2023-08-03T12:33:00,rvs,11.23
2023-08-03T12:34:00,rvs,11.03
2023-08-03T12:35:00,rvs,11.56
2023-08-03T12:36:00,rvs,11.69
2023-08-03T12:37:00,rvs,11.65
2023-08-03T12:38:00,rvs,11.04
2023-08-03T12:39:00,rvs,11.74
2023-08-03T12:40:00,rvs,11.75
2023-08-03T12:41:00,rvs,12.16
2023-08-03T12:42:00,rvs,12.26
2023-08-03T12:43:00,rvs,12.03
2023-08-03T12:44:00,rvs,11.00
2023-08-03T12:45:00,rvs,10.44
2023-08-03T12:46:00,rvs,10.43
2023-08-03T12:47:00,rvs,10.55
2023-08-03T12:48:00,rvs,10.71
2023-08-03T12:49:00,rvs,10.85
2023-08-03T12:50:00,rvs,15.44
2023-08-03T12:51:00,rvs,16.19
2023-08-03T12:52:00,rvs,16.24
2023-08-03T12:53:00,rvs,12.23
2023-08-03T12:54:00,rvs,15.07
2023-08-03T12:55:00,rvs,11.10
2023-08-03T12:56:00,rvs,15.05
2023-08-03T12:57:00,rvs,15.07
2023-08-03T12:58:00,rvs,10.94
2023-08-03T12:59:00,rvs,14.96
2023-08-03T13:00:00,rvs,10.95
2023-08-03T13:01:00,rvs,10.88
2023-08-03T13:02:00,rvs,15.94
2023-08-03T13:03:00,rvs,11.92
2023-08-03T13:04:00,rvs,11.93
2023-08-03T13:05:00,rvs,14.76
2023-08-03T13:06:00,rvs,10.85
2023-08-03T13:07:00,rvs,14.86
2023-08-03T13:08:00,rvs,11.01
2023-08-03T13:09:00,rvs,10.60
2023-08-03T13:10:00,rvs,14.87
2023-08-03T13:11:00,rvs,11.17
2023-08-03T13:12:00,rvs,16.40
2023-08-03T13:13:00,rvs,11.49
2023-08-03T13:14:00,rvs,11.46
2023-08-03T13:15:00,rvs,14.46
2023-08-03T13:16:00,rvs,10.47
2023-08-03T13:17:00,rvs,15.74
2023-08-03T13:18:00,rvs,13.24